{"data":{"norad_id":53651,"intl_designator":"2022-105D","name":"STARLINK-4388","alt_names":[],"object_type":"PAYLOAD","status":"ACTIVE","operator":null,"country":"US","launch_date":"2022-08-31","launch_site_code":"AFWTR","launch_vehicle":null,"mission":null,"orbit_class":"UNKNOWN","rcs_meters":null,"size_class":null,"mass_kg":null,"dimensions":null,"purposes":["comms"],"wikipedia_slug":null,"has_3d_model":false,"image_url":null,"decayed_at":null,"tle_current":{"epoch":"2026-05-25T04:00:03.998880Z","epoch_age_seconds":63939,"freshness":"FRESH","line1":"1 53651U 22105D   26145.16671295  .00116146  00000+0  26011-2 0  9995","line2":"2 53651  97.6040  28.3247 0001847  77.3160  61.4344 15.43004840  5824","mean_motion":15.4300484,"eccentricity":0.0001847,"inclination_deg":97.604,"raan_deg":28.3247,"arg_perigee_deg":77.316,"mean_anomaly_deg":61.4344,"bstar":0.0026011,"rev_number":582,"period_min":93.324399423141,"perigee_km":435.9879695232,"apogee_km":438.50557228817,"semimajor_km":6815.3837709057,"source":"CELESTRAK","updated_at":"2026-05-25T13:38:17.484600Z"}}}